Date,TemperatureHighF,TemperatureAvgF,TemperatureLowF,DewpointHighF,DewpointAvgF,DewpointLowF,HumidityHigh,HumidityAvg,HumidityLow,PressureMaxIn,PressureMinIn,WindSpeedMaxMPH,WindSpeedAvgMPH,GustSpeedMaxMPH,PrecipitationSumIn
2013-3-1,53,48,42,50,46,39,93,90,80,0.00,40.00,3,0,4,0.00
2013-3-2,52,44,38,46,41,36,93,89,73,0.00,40.00,3,1,6,0.00
2013-3-3,45,37,31,37,33,29,93,86,59,0.00,40.00,4,0,6,0.00
2013-3-4,48,36,29,37,29,-100,93,80,10,0.00,40.00,2,0,4,0.00
2013-3-5,43,39,34,41,37,32,93,93,91,0.00,40.00,1,0,2,0.00
2013-3-6,44,41,39,40,39,37,93,91,83,0.00,40.00,4,1,11,0.00
2013-3-7,47,38,32,39,35,29,93,86,67,0.00,40.00,3,0,4,0.00
2013-3-8,52,38,29,40,32,27,93,82,50,0.00,40.00,4,0,6,0.00
2013-3-9,55,39,30,41,32,28,93,80,35,0.00,40.00,4,1,6,0.00
2013-3-10,50,42,30,45,38,28,93,86,58,0.00,40.00,4,0,6,0.00
2013-3-11,51,47,44,48,44,42,93,91,79,0.00,40.00,3,0,8,0.00
2013-3-12,56,49,43,47,42,39,93,80,55,0.00,40.00,5,1,9,0.00
2013-3-13,60,49,43,45,42,39,91,77,51,0.00,40.00,4,0,7,0.00
2013-3-14,52,47,43,46,42,37,92,83,61,0.00,40.00,4,1,8,0.00
2013-3-15,57,50,46,48,45,43,93,86,63,0.00,40.00,5,1,8,0.00
2013-3-16,46,43,37,43,40,33,92,91,86,0.00,40.00,6,2,11,0.00
2013-3-17,43,37,34,38,33,30,93,87,63,0.00,40.00,5,0,8,0.00
2013-3-18,49,38,31,39,33,29,94,83,54,0.00,40.00,4,0,6,0.00
2013-3-19,43,40,36,41,36,32,93,87,73,0.00,40.00,2,0,3,0.00
2013-3-20,50,43,36,47,40,30,93,88,74,0.00,40.00,10,4,16,0.00
2013-3-21,42,37,33,37,33,29,93,86,59,0.00,40.00,4,1,8,0.00
2013-3-22,42,35,31,36,32,28,94,88,58,0.00,40.00,4,1,8,0.00
2013-3-23,46,36,31,35,29,23,93,78,40,0.00,40.00,1,0,3,0.00
2013-3-24,52,41,33,36,32,28,92,73,42,0.00,40.00,2,0,4,0.00
2013-3-25,55,42,34,38,33,28,92,74,39,0.00,40.00,4,0,7,0.00
2013-3-26,49,43,35,44,40,33,93,89,76,0.00,40.00,2,0,4,0.00
2013-3-27,55,46,42,49,44,41,93,90,69,0.00,40.00,4,0,6,0.00
2013-3-28,55,48,42,50,45,40,93,90,77,0.00,40.00,2,0,4,0.00
2013-3-29,61,50,43,48,44,41,93,82,55,0.00,40.00,2,0,4,0.00
2013-3-30,69,53,38,52,41,-100,93,73,38,0.00,40.00,3,0,6,0.00
2013-3-31,65,53,39,50,43,37,93,73,42,0.00,40.00,6,1,10,0.00